Time,TemperatureF,DewpointF,PressureIn,WindDirection,WindDirectionDegrees,WindSpeedMPH,WindSpeedGustMPH,Humidity,HourlyPrecipIn,Conditions,Clouds,dailyrainin,SoftwareType,DateUTC
2013-03-05 00:00:00,30.8,17.7,30.01,SSE,158,0.0,2.0,58,0.00,,,0.00,Wunderground v.1.15,2013-03-05 05:00:00,
2013-03-05 00:02:00,30.8,17.3,30.01,SSE,158,0.0,2.0,57,0.00,,,0.00,Wunderground v.1.15,2013-03-05 05:02:00,
2013-03-05 00:04:00,30.7,18.4,30.01,SSE,158,0.0,2.0,60,0.00,,,0.00,Wunderground v.1.15,2013-03-05 05:04:00,
2013-03-05 00:06:00,30.7,18.8,30.01,SSE,158,0.0,2.0,61,0.00,,,0.00,Wunderground v.1.15,2013-03-05 05:06:00,
2013-03-05 00:12:00,30.6,17.2,30.01,SSE,158,0.0,2.0,57,0.00,,,0.00,Wunderground v.1.15,2013-03-05 05:12:00,
2013-03-05 00:18:00,30.7,16.4,30.01,SSE,158,0.0,2.0,55,0.00,,,0.00,Wunderground v.1.15,2013-03-05 05:18:00,
2013-03-05 00:24:00,31.1,19.2,30.01,SSE,158,0.0,2.0,61,0.00,,,0.00,Wunderground v.1.15,2013-03-05 05:24:00,
2013-03-05 00:30:00,31.1,17.2,30.01,SSE,158,0.0,2.0,56,0.00,,,0.00,Wunderground v.1.15,2013-03-05 05:30:00,
2013-03-05 00:36:00,31.3,16.1,30.01,SSE,158,0.0,2.0,53,0.00,,,0.00,Wunderground v.1.15,2013-03-05 05:36:00,
2013-03-05 00:42:00,31.6,17.3,30.02,SSE,158,0.0,2.0,55,0.00,,,0.00,Wunderground v.1.15,2013-03-05 05:42:00,
2013-03-05 00:48:00,31.9,20.3,30.02,SSE,158,0.0,2.0,62,0.00,,,0.00,Wunderground v.1.15,2013-03-05 05:48:00,
2013-03-05 00:54:00,32.0,21.9,30.02,SSE,158,0.0,2.0,66,0.00,,,0.00,Wunderground v.1.15,2013-03-05 05:54:00,
2013-03-05 01:00:00,32.0,20.8,30.02,SSE,158,0.0,1.0,63,0.00,,,0.00,Wunderground v.1.15,2013-03-05 06:00:00,
2013-03-05 01:06:00,31.9,21.1,30.02,SSE,158,0.0,1.0,64,0.00,,,0.00,Wunderground v.1.15,2013-03-05 06:06:00,
2013-03-05 01:12:00,31.8,22.1,30.02,SSE,158,0.0,1.0,67,0.00,,,0.00,Wunderground v.1.15,2013-03-05 06:12:00,
2013-03-05 01:18:00,31.7,20.2,30.02,SSE,158,0.0,1.0,62,0.00,,,0.00,Wunderground v.1.15,2013-03-05 06:18:00,
2013-03-05 01:24:00,31.7,21.3,30.03,SSE,158,0.0,1.0,65,0.00,,,0.00,Wunderground v.1.15,2013-03-05 06:24:00,
2013-03-05 01:30:00,31.7,21.3,30.03,SSE,158,0.0,1.0,65,0.00,,,0.00,Wunderground v.1.15,2013-03-05 06:30:00,
2013-03-05 01:36:00,31.6,20.8,30.03,SSE,158,0.0,1.0,64,0.00,,,0.00,Wunderground v.1.15,2013-03-05 06:36:00,
2013-03-05 01:42:00,31.6,20.8,30.03,SSE,158,0.0,1.0,64,0.00,,,0.00,Wunderground v.1.15,2013-03-05 06:42:00,
2013-03-05 01:48:00,31.6,20.8,30.03,SSE,158,0.0,1.0,64,0.00,,,0.00,Wunderground v.1.15,2013-03-05 06:48:00,